Time,TemperatureF,DewpointF,PressureIn,WindDirection,WindDirectionDegrees,WindSpeedMPH,WindSpeedGustMPH,Humidity,HourlyPrecipIn,Conditions,Clouds,dailyrainin,SoftwareType,DateUTC
2015-09-02 00:04:00,65.5,0.0,30.02,WNW,297,0.0,0.0,0,0.00,,,0.00,VWS V14.01,2015-09-02 04:04:00,
2015-09-02 00:08:00,65.3,0.0,30.02,WNW,297,0.0,0.0,0,0.00,,,0.00,VWS V14.01,2015-09-02 04:08:00,
2015-09-02 00:13:00,65.2,0.0,30.02,WNW,297,0.0,0.0,0,0.00,,,0.00,VWS V14.01,2015-09-02 04:13:00,
2015-09-02 00:18:00,65.1,0.0,30.02,WNW,297,0.0,0.0,0,0.00,,,0.00,VWS V14.01,2015-09-02 04:18:00,
2015-09-02 00:23:00,65.0,0.0,30.02,WNW,297,0.0,0.0,0,0.00,,,0.00,VWS V14.01,2015-09-02 04:23:00,
2015-09-02 00:28:00,65.0,0.0,30.02,WNW,297,0.0,0.0,0,0.00,,,0.00,VWS V14.01,2015-09-02 04:28:00,
2015-09-02 00:33:00,64.9,0.0,30.02,WNW,297,0.0,0.0,0,0.00,,,0.00,VWS V14.01,2015-09-02 04:33:00,
2015-09-02 00:38:00,64.8,0.0,30.02,WNW,297,0.0,0.0,0,0.00,,,0.00,VWS V14.01,2015-09-02 04:38:00,
2015-09-02 00:43:00,64.7,0.0,30.02,WNW,297,0.0,0.0,0,0.00,,,0.00,VWS V14.01,2015-09-02 04:43:00,
2015-09-02 00:48:00,64.7,0.0,30.02,WNW,297,0.0,0.0,0,0.00,,,0.00,VWS V14.01,2015-09-02 04:48:00,
2015-09-02 00:53:00,64.6,0.0,30.02,WNW,297,0.0,0.0,0,0.00,,,0.00,VWS V14.01,2015-09-02 04:53:00,
2015-09-02 00:58:00,64.6,0.0,30.02,WNW,297,0.0,0.0,0,0.00,,,0.00,VWS V14.01,2015-09-02 04:58:00,
2015-09-02 01:03:00,64.6,0.0,30.02,WNW,297,0.0,0.0,0,0.00,,,0.00,VWS V14.01,2015-09-02 05:03:00,
2015-09-02 01:08:00,64.9,0.0,30.02,WNW,297,0.0,0.0,0,0.00,,,0.00,VWS V14.01,2015-09-02 05:08:00,
2015-09-02 01:13:00,64.7,0.0,30.02,WNW,297,0.0,0.0,0,0.00,,,0.00,VWS V14.01,2015-09-02 05:13:00,
2015-09-02 01:18:00,64.7,0.0,30.02,WNW,297,0.0,0.0,0,0.00,,,0.00,VWS V14.01,2015-09-02 05:18:00,
2015-09-02 01:23:00,64.8,0.0,30.02,WNW,297,0.0,0.0,0,0.00,,,0.00,VWS V14.01,2015-09-02 05:23:00,
2015-09-02 01:28:00,64.7,0.0,30.02,WNW,297,0.0,0.0,0,0.00,,,0.00,VWS V14.01,2015-09-02 05:28:00,
2015-09-02 01:33:00,64.6,0.0,30.02,WNW,297,0.0,0.0,0,0.00,,,0.00,VWS V14.01,2015-09-02 05:33:00,
2015-09-02 01:38:00,64.4,0.0,30.02,WNW,297,0.0,0.0,0,0.00,,,0.00,VWS V14.01,2015-09-02 05:38:00,
2015-09-02 01:43:00,64.2,0.0,30.02,WNW,297,0.0,0.0,0,0.00,,,0.00,VWS V14.01,2015-09-02 05:43:00,
2015-09-02 01:48:00,64.1,0.0,30.01,WNW,297,0.0,0.0,0,0.00,,,0.00,VWS V14.01,2015-09-02 05:48:00,
2015-09-02 01:53:00,63.9,0.0,30.02,WNW,297,0.0,0.0,0,0.00,,,0.00,VWS V14.01,2015-09-02 05:53:00,
2015-09-02 01:58:00,63.7,0.0,30.02,WNW,297,0.0,0.0,0,0.00,,,0.00,VWS V14.01,2015-09-02 05:58:00,
2015-09-02 02:03:00,63.6,0.0,30.02,WNW,297,0.0,0.0,0,0.00,,,0.00,VWS V14.01,2015-09-02 06:03:00,
2015-09-02 02:08:00,63.4,0.0,30.02,WNW,297,0.0,0.0,0,0.00,,,0.00,VWS V14.01,2015-09-02 06:08:00,
2015-09-02 02:13:00,63.1,0.0,30.01,WNW,297,0.0,0.0,0,0.00,,,0.00,VWS V14.01,2015-09-02 06:13:00,
2015-09-02 02:18:00,62.9,0.0,30.01,WNW,297,0.0,0.0,0,0.00,,,0.00,VWS V14.01,2015-09-02 06:18:00,
2015-09-02 02:23:00,62.5,0.0,30.01,WNW,297,0.0,0.0,0,0.00,,,0.00,VWS V14.01,2015-09-02 06:23:00,
2015-09-02 02:28:00,62.3,0.0,30.01,WNW,297,0.0,0.0,0,0.00,,,0.00,VWS V14.01,2015-09-02 06:28:00,
2015-09-02 02:33:00,62.2,0.0,30.01,WNW,297,0.0,0.0,0,0.00,,,0.00,VWS V14.01,2015-09-02 06:33:00,
2015-09-02 02:38:00,62.3,0.0,30.01,WNW,297,0.0,0.0,0,0.00,,,0.00,VWS V14.01,2015-09-02 06:38:00,
2015-09-02 02:43:00,62.1,0.0,30.01,WNW,297,0.0,0.0,0,0.00,,,0.00,VWS V14.01,2015-09-02 06:43:00,
2015-09-02 02:48:00,62.0,0.0,30.01,WNW,297,0.0,0.0,0,0.00,,,0.00,VWS V14.01,2015-09-02 06:48:00,
2015-09-02 02:53:00,61.8,0.0,30.01,WNW,297,0.0,0.0,0,0.00,,,0.00,VWS V14.01,2015-09-02 06:53:00,
2015-09-02 02:58:00,62.0,0.0,30.01,WNW,297,0.0,0.0,0,0.00,,,0.00,VWS V14.01,2015-09-02 06:58:00,
2015-09-02 03:03:00,61.8,0.0,30.01,WNW,297,0.0,0.0,0,0.00,,,0.00,VWS V14.01,2015-09-02 07:03:00,
2015-09-02 03:08:00,61.7,0.0,30.01,WNW,297,0.0,0.0,0,0.00,,,0.00,VWS V14.01,2015-09-02 07:08:00,
2015-09-02 03:13:00,61.7,0.0,30.01,WNW,297,0.0,0.0,0,0.00,,,0.00,VWS V14.01,2015-09-02 07:13:00,
2015-09-02 03:18:00,61.5,0.0,30.01,WNW,297,0.0,0.0,0,0.00,,,0.00,VWS V14.01,2015-09-02 07:18:00,
2015-09-02 03:23:00,61.2,0.0,30.01,WNW,297,0.0,0.0,0,0.00,,,0.00,VWS V14.01,2015-09-02 07:23:00,
2015-09-02 03:28:00,60.9,0.0,30.00,WNW,297,0.0,0.0,0,0.00,,,0.00,VWS V14.01,2015-09-02 07:28:00,
2015-09-02 03:33:00,60.7,0.0,30.00,WNW,297,0.0,0.0,0,0.00,,,0.00,VWS V14.01,2015-09-02 07:33:00,
2015-09-02 03:38:00,60.6,0.0,30.00,WNW,297,0.0,0.0,0,0.00,,,0.00,VWS V14.01,2015-09-02 07:38:00,
2015-09-02 03:43:00,60.6,0.0,30.00,WNW,297,0.0,1.0,0,0.00,,,0.00,VWS V14.01,2015-09-02 07:43:00,
2015-09-02 03:48:00,60.8,0.0,30.00,WNW,297,0.0,1.0,0,0.00,,,0.00,VWS V14.01,2015-09-02 07:48:00,
2015-09-02 03:58:00,60.7,0.0,30.00,WNW,297,0.0,1.0,0,0.00,,,0.00,VWS V14.01,2015-09-02 07:58:00,
2015-09-02 04:03:00,60.7,0.0,30.00,WNW,297,0.0,0.0,0,0.00,,,0.00,VWS V14.01,2015-09-02 08:03:00,
2015-09-02 04:08:00,60.7,0.0,30.00,WNW,297,0.0,1.0,0,0.00,,,0.00,VWS V14.01,2015-09-02 08:08:00,
2015-09-02 04:13:00,60.6,0.0,30.00,WNW,297,0.0,1.0,0,0.00,,,0.00,VWS V14.01,2015-09-02 08:13:00,
2015-09-02 04:18:00,60.7,0.0,30.00,WNW,297,1.0,1.0,0,0.00,,,0.00,VWS V14.01,2015-09-02 08:18:00,
2015-09-02 04:23:00,60.7,0.0,30.00,WNW,297,0.0,1.0,0,0.00,,,0.00,VWS V14.01,2015-09-02 08:23:00,
2015-09-02 04:28:00,62.0,0.0,30.00,WNW,297,0.0,2.0,0,0.00,,,0.00,VWS V14.01,2015-09-02 08:28:00,
2015-09-02 04:33:00,62.9,0.0,30.00,WNW,297,1.0,2.0,0,0.00,,,0.00,VWS V14.01,2015-09-02 08:33:00,
2015-09-02 04:38:00,63.2,0.0,30.00,WNW,297,2.0,2.0,0,0.00,,,0.00,VWS V14.01,2015-09-02 08:38:00,
2015-09-02 04:43:00,63.0,0.0,30.00,WNW,297,1.0,3.0,0,0.00,,,0.00,VWS V14.01,2015-09-02 08:43:00,
2015-09-02 04:48:00,63.2,0.0,30.00,WNW,297,0.0,3.0,0,0.00,,,0.00,VWS V14.01,2015-09-02 08:48:00,
2015-09-02 04:53:00,63.8,0.0,30.00,WNW,297,0.0,3.0,0,0.00,,,0.00,VWS V14.01,2015-09-02 08:53:00,
2015-09-02 04:58:00,64.4,0.0,30.00,WNW,297,0.0,3.0,0,0.00,,,0.00,VWS V14.01,2015-09-02 08:58:00,
2015-09-02 05:03:00,64.5,0.0,30.00,WNW,297,0.0,0.0,0,0.00,,,0.00,VWS V14.01,2015-09-02 09:03:00,
2015-09-02 05:08:00,64.6,0.0,30.00,WNW,297,0.0,0.0,0,0.00,,,0.00,VWS V14.01,2015-09-02 09:08:00,
2015-09-02 05:13:00,64.4,0.0,30.00,WNW,297,0.0,2.0,0,0.00,,,0.00,VWS V14.01,2015-09-02 09:13:00,
2015-09-02 05:18:00,64.3,0.0,30.00,WNW,297,0.0,2.0,0,0.00,,,0.00,VWS V14.01,2015-09-02 09:18:00,
2015-09-02 05:23:00,64.3,0.0,30.00,WNW,297,1.0,2.0,0,0.00,,,0.00,VWS V14.01,2015-09-02 09:23:00,
2015-09-02 05:28:00,64.6,0.0,30.00,WNW,297,1.0,2.0,0,0.00,,,0.00,VWS V14.01,2015-09-02 09:28:00,
2015-09-02 05:33:00,64.7,0.0,30.00,WNW,297,0.0,0.0,0,0.00,,,0.00,VWS V14.01,2015-09-02 09:33:00,
2015-09-02 05:38:00,65.1,0.0,30.00,WNW,297,0.0,3.0,0,0.00,,,0.00,VWS V14.01,2015-09-02 09:38:00,
2015-09-02 05:43:00,65.4,0.0,30.00,WNW,290,2.0,5.0,0,0.00,,,0.00,VWS V14.01,2015-09-02 09:43:00,
2015-09-02 05:48:00,65.4,0.0,30.00,WNW,290,2.0,5.0,0,0.00,,,0.00,VWS V14.01,2015-09-02 09:48:00,
2015-09-02 05:53:00,65.3,0.0,30.00,WNW,290,3.0,5.0,0,0.00,,,0.00,VWS V14.01,2015-09-02 09:53:00,
2015-09-02 05:58:00,65.3,0.0,30.00,WNW,288,4.0,5.0,0,0.00,,,0.00,VWS V14.01,2015-09-02 09:58:00,
2015-09-02 06:03:00,65.3,0.0,30.00,WNW,287,3.0,3.0,0,0.00,,,0.00,VWS V14.01,2015-09-02 10:03:00,
2015-09-02 06:08:00,65.2,0.0,30.00,WNW,287,4.0,4.0,0,0.00,,,0.00,VWS V14.01,2015-09-02 10:08:00,
2015-09-02 06:13:00,65.2,0.0,30.00,WNW,286,2.0,4.0,0,0.00,,,0.00,VWS V14.01,2015-09-02 10:13:00,
2015-09-02 06:18:00,65.2,0.0,30.00,WNW,294,2.0,5.0,0,0.00,,,0.00,VWS V14.01,2015-09-02 10:18:00,
2015-09-02 06:23:00,65.1,0.0,30.00,WNW,294,2.0,5.0,0,0.00,,,0.00,VWS V14.01,2015-09-02 10:23:00,
2015-09-02 06:28:00,65.1,0.0,30.00,WNW,294,3.0,5.0,0,0.00,,,0.00,VWS V14.01,2015-09-02 10:28:00,
2015-09-02 06:33:00,65.1,0.0,30.00,WNW,293,3.0,5.0,0,0.00,,,0.00,VWS V14.01,2015-09-02 10:33:00,
2015-09-02 06:38:00,64.9,0.0,30.00,WNW,293,0.0,5.0,0,0.00,,,0.00,VWS V14.01,2015-09-02 10:38:00,
2015-09-02 06:43:00,64.8,0.0,30.00,WNW,293,2.0,5.0,0,0.00,,,0.00,VWS V14.01,2015-09-02 10:43:00,
2015-09-02 06:48:00,64.8,0.0,30.00,WNW,293,1.0,5.0,0,0.00,,,0.00,VWS V14.01,2015-09-02 10:48:00,
2015-09-02 06:53:00,64.7,0.0,30.00,WNW,293,2.0,5.0,0,0.00,,,0.00,VWS V14.01,2015-09-02 10:53:00,
2015-09-02 06:58:00,64.8,0.0,30.01,WNW,293,2.0,5.0,0,0.00,,,0.00,VWS V14.01,2015-09-02 10:58:00,
2015-09-02 07:03:00,64.9,0.0,30.01,WNW,293,1.0,3.0,0,0.00,,,0.00,VWS V14.01,2015-09-02 11:03:00,
2015-09-02 07:08:00,64.9,0.0,30.01,WNW,293,0.0,3.0,0,0.00,,,0.00,VWS V14.01,2015-09-02 11:08:00,
2015-09-02 07:13:00,65.0,0.0,30.01,WNW,293,2.0,3.0,0,0.00,,,0.00,VWS V14.01,2015-09-02 11:13:00,
2015-09-02 07:18:00,65.2,0.0,30.01,WNW,293,1.0,3.0,0,0.00,,,0.00,VWS V14.01,2015-09-02 11:18:00,
2015-09-02 07:23:00,65.2,0.0,30.01,WNW,293,0.0,3.0,0,0.00,,,0.00,VWS V14.01,2015-09-02 11:23:00,
2015-09-02 07:28:00,65.4,0.0,30.01,WNW,293,1.0,3.0,0,0.00,,,0.00,VWS V14.01,2015-09-02 11:28:00,
2015-09-02 07:33:00,65.5,0.0,30.01,WNW,293,1.0,2.0,0,0.00,,,0.00,VWS V14.01,2015-09-02 11:33:00,
2015-09-02 07:38:00,65.6,0.0,30.01,WNW,293,0.0,2.0,0,0.00,,,0.00,VWS V14.01,2015-09-02 11:38:00,
2015-09-02 07:43:00,65.7,0.0,30.01,WNW,293,1.0,3.0,0,0.00,,,0.00,VWS V14.01,2015-09-02 11:43:00,
2015-09-02 07:48:00,65.8,0.0,30.01,WNW,293,0.0,3.0,0,0.00,,,0.00,VWS V14.01,2015-09-02 11:48:00,
2015-09-02 07:53:00,66.0,0.0,30.01,WNW,293,2.0,3.0,0,0.00,,,0.00,VWS V14.01,2015-09-02 11:53:00,
2015-09-02 07:58:00,66.1,0.0,30.01,WNW,293,2.0,3.0,0,0.00,,,0.00,VWS V14.01,2015-09-02 11:58:00,
2015-09-02 08:03:00,66.2,0.0,30.01,WNW,293,0.0,2.0,0,0.00,,,0.00,VWS V14.01,2015-09-02 12:03:00,
2015-09-02 08:08:00,66.3,0.0,30.01,WNW,293,0.0,4.0,0,0.00,,,0.00,VWS V14.01,2015-09-02 12:08:00,
2015-09-02 08:13:00,66.5,0.0,30.01,WNW,293,2.0,4.0,0,0.00,,,0.00,VWS V14.01,2015-09-02 12:13:00,
2015-09-02 08:18:00,66.6,0.0,30.01,WNW,292,2.0,5.0,0,0.00,,,0.00,VWS V14.01,2015-09-02 12:18:00,
2015-09-02 08:23:00,66.8,0.0,30.01,WNW,292,2.0,5.0,0,0.00,,,0.00,VWS V14.01,2015-09-02 12:23:00,
2015-09-02 08:28:00,66.8,0.0,30.01,WNW,292,1.0,5.0,0,0.00,,,0.00,VWS V14.01,2015-09-02 12:28:00,
2015-09-02 08:33:00,67.0,0.0,30.01,WNW,292,4.0,5.0,0,0.00,,,0.00,VWS V14.01,2015-09-02 12:33:00,
2015-09-02 08:38:00,67.2,0.0,30.01,WNW,295,4.0,5.0,0,0.00,,,0.00,VWS V14.01,2015-09-02 12:38:00,
2015-09-02 08:43:00,67.2,0.0,30.02,WNW,285,4.0,5.0,0,0.00,,,0.00,VWS V14.01,2015-09-02 12:43:00,
2015-09-02 08:48:00,67.3,0.0,30.01,West,281,3.0,6.0,0,0.00,,,0.00,VWS V14.01,2015-09-02 12:48:00,
2015-09-02 08:53:00,67.5,0.0,30.01,West,280,3.0,6.0,0,0.00,,,0.00,VWS V14.01,2015-09-02 12:53:00,
2015-09-02 08:58:00,67.7,0.0,30.01,WNW,286,4.0,7.0,0,0.00,,,0.00,VWS V14.01,2015-09-02 12:58:00,
2015-09-02 09:03:00,67.9,0.0,30.01,WNW,292,2.0,5.0,0,0.00,,,0.00,VWS V14.01,2015-09-02 13:03:00,
2015-09-02 09:08:00,68.3,0.0,30.00,WNW,286,5.0,6.0,0,0.00,,,0.00,VWS V14.01,2015-09-02 13:08:00,
2015-09-02 09:13:00,68.4,0.0,30.00,WNW,284,3.0,6.0,0,0.00,,,0.00,VWS V14.01,2015-09-02 13:13:00,
2015-09-02 09:18:00,68.9,0.0,30.00,WNW,284,4.0,6.0,0,0.00,,,0.00,VWS V14.01,2015-09-02 13:18:00,
2015-09-02 09:23:00,69.1,0.0,30.00,West,277,1.0,6.0,0,0.00,,,0.00,VWS V14.01,2015-09-02 13:23:00,
2015-09-02 09:28:00,69.4,0.0,30.00,WNW,293,5.0,6.0,0,0.00,,,0.00,VWS V14.01,2015-09-02 13:28:00,
2015-09-02 09:33:00,70.1,0.0,30.00,WNW,303,5.0,5.0,0,0.00,,,0.00,VWS V14.01,2015-09-02 13:33:00,
2015-09-02 09:38:00,70.5,0.0,30.00,WNW,282,3.0,6.0,0,0.00,,,0.00,VWS V14.01,2015-09-02 13:38:00,
2015-09-02 09:41:00,70.8,0.0,30.00,West,273,4.0,7.0,0,0.00,,,0.00,VWS V14.01,2015-09-02 13:41:00,
2015-09-02 09:42:00,70.9,0.0,30.00,West,271,4.0,7.0,0,0.00,,,0.00,VWS V14.01,2015-09-02 13:42:00,
2015-09-02 09:47:00,71.3,0.0,30.00,West,273,3.0,7.0,0,0.00,,,0.00,VWS V14.01,2015-09-02 13:47:00,
2015-09-02 09:52:00,71.7,0.0,30.00,West,261,4.0,7.0,0,0.00,,,0.00,VWS V14.01,2015-09-02 13:52:00,
2015-09-02 09:57:00,72.1,0.0,30.00,West,261,3.0,7.0,0,0.00,,,0.00,VWS V14.01,2015-09-02 13:57:00,
2015-09-02 10:02:00,72.7,0.0,30.00,West,277,3.0,5.0,0,0.00,,,0.00,VWS V14.01,2015-09-02 14:02:00,
2015-09-02 10:07:00,73.0,0.0,30.00,West,275,4.0,5.0,0,0.00,,,0.00,VWS V14.01,2015-09-02 14:07:00,
2015-09-02 10:12:00,73.5,0.0,30.00,West,275,0.0,5.0,0,0.00,,,0.00,VWS V14.01,2015-09-02 14:12:00,
2015-09-02 10:17:00,74.1,0.0,30.00,West,276,0.0,5.0,0,0.00,,,0.00,VWS V14.01,2015-09-02 14:17:00,
2015-09-02 10:22:00,74.4,0.0,30.00,WNW,283,0.0,5.0,0,0.00,,,0.00,VWS V14.01,2015-09-02 14:22:00,
2015-09-02 10:27:00,74.8,0.0,30.00,WNW,283,2.0,5.0,0,0.00,,,0.00,VWS V14.01,2015-09-02 14:27:00,
2015-09-02 10:32:00,75.2,0.0,30.00,West,276,0.0,0.0,0,0.00,,,0.00,VWS V14.01,2015-09-02 14:32:00,
2015-09-02 10:37:00,75.6,0.0,30.00,West,276,3.0,3.0,0,0.00,,,0.00,VWS V14.01,2015-09-02 14:37:00,
2015-09-02 10:42:00,76.0,0.0,30.00,West,276,0.0,4.0,0,0.00,,,0.00,VWS V14.01,2015-09-02 14:42:00,
2015-09-02 10:47:00,76.3,-4.2,30.00,West,269,4.0,5.0,4,0.00,,,0.00,VWS V14.01,2015-09-02 14:47:00,
2015-09-02 10:52:00,76.4,4.4,30.00,West,269,1.0,5.0,6,0.00,,,0.00,VWS V14.01,2015-09-02 14:52:00,
2015-09-02 10:57:00,76.8,16.2,30.00,West,273,1.0,5.0,10,0.00,,,0.00,VWS V14.01,2015-09-02 14:57:00,
2015-09-02 11:02:00,77.2,31.8,29.99,NW,315,0.0,2.0,19,0.00,,,0.00,VWS V14.01,2015-09-02 15:02:00,
2015-09-02 11:07:00,77.6,39.0,29.99,WNW,290,2.0,5.0,25,0.00,,,0.00,VWS V14.01,2015-09-02 15:07:00,
2015-09-02 11:12:00,77.7,41.1,29.99,West,277,1.0,5.0,27,0.00,,,0.00,VWS V14.01,2015-09-02 15:12:00,
2015-09-02 11:17:00,78.1,41.4,29.99,West,276,0.0,5.0,27,0.00,,,0.00,VWS V14.01,2015-09-02 15:17:00,
2015-09-02 11:22:00,78.4,47.0,29.99,West,267,4.0,5.0,33,0.00,,,0.00,VWS V14.01,2015-09-02 15:22:00,
2015-09-02 11:27:00,78.5,41.8,29.99,West,275,0.0,5.0,27,0.00,,,0.00,VWS V14.01,2015-09-02 15:27:00,
2015-09-02 11:32:00,78.7,49.5,29.99,West,275,5.0,5.0,36,0.00,,,0.00,VWS V14.01,2015-09-02 15:32:00,
2015-09-02 11:37:00,78.7,50.3,29.98,West,261,2.0,5.0,37,0.00,,,0.00,VWS V14.01,2015-09-02 15:37:00,
2015-09-02 11:41:00,79.1,50.6,29.98,NW,310,0.0,5.0,37,0.00,,,0.00,VWS V14.01,2015-09-02 15:41:00,
2015-09-02 11:46:00,79.5,52.4,29.98,NW,310,1.0,5.0,39,0.00,,,0.00,VWS V14.01,2015-09-02 15:46:00,
2015-09-02 11:51:00,80.0,56.8,29.98,NW,310,0.0,5.0,45,0.00,,,0.00,VWS V14.01,2015-09-02 15:51:00,
2015-09-02 11:56:00,80.4,57.1,29.98,NW,310,3.0,5.0,45,0.00,,,0.00,VWS V14.01,2015-09-02 15:56:00,
2015-09-02 12:01:00,80.5,58.4,29.98,WNW,292,2.0,4.0,47,0.00,,,0.00,VWS V14.01,2015-09-02 16:01:00,
2015-09-02 12:06:00,80.5,59.0,29.98,WNW,292,4.0,5.0,48,0.00,,,0.00,VWS V14.01,2015-09-02 16:06:00,
2015-09-02 12:11:00,80.7,60.9,29.97,WNW,292,0.0,5.0,51,0.00,,,0.00,VWS V14.01,2015-09-02 16:11:00,
2015-09-02 12:16:00,81.2,60.8,29.97,WNW,292,1.0,5.0,50,0.00,,,0.00,VWS V14.01,2015-09-02 16:16:00,
2015-09-02 12:21:00,81.5,62.2,29.97,WNW,292,0.0,5.0,52,0.00,,,0.00,VWS V14.01,2015-09-02 16:21:00,
2015-09-02 12:26:00,81.7,62.9,29.97,North,355,0.0,5.0,53,0.00,,,0.00,VWS V14.01,2015-09-02 16:26:00,
2015-09-02 12:31:00,82.0,62.7,29.97,NW,305,1.0,3.0,52,0.00,,,0.00,VWS V14.01,2015-09-02 16:31:00,
2015-09-02 12:36:00,82.1,62.8,29.96,NW,305,0.0,3.0,52,0.00,,,0.00,VWS V14.01,2015-09-02 16:36:00,
2015-09-02 12:41:00,82.2,62.8,29.96,WNW,293,4.0,6.0,52,0.00,,,0.00,VWS V14.01,2015-09-02 16:41:00,
2015-09-02 12:46:00,82.1,60.5,29.96,West,268,1.0,6.0,48,0.00,,,0.00,VWS V14.01,2015-09-02 16:46:00,
2015-09-02 12:51:00,82.2,62.3,29.96,West,269,5.0,6.0,51,0.00,,,0.00,VWS V14.01,2015-09-02 16:51:00,
2015-09-02 12:56:00,82.1,62.2,29.95,WNW,303,2.0,7.0,51,0.00,,,0.00,VWS V14.01,2015-09-02 16:56:00,
2015-09-02 13:01:00,82.1,62.2,29.95,NW,312,3.0,3.0,51,0.00,,,0.00,VWS V14.01,2015-09-02 17:01:00,
2015-09-02 13:06:00,82.9,63.5,29.95,West,267,0.0,4.0,52,0.00,,,0.00,VWS V14.01,2015-09-02 17:06:00,
2015-09-02 13:11:00,83.8,63.8,29.95,West,263,2.0,4.0,51,0.00,,,0.00,VWS V14.01,2015-09-02 17:11:00,
2015-09-02 13:16:00,83.6,63.0,29.95,West,273,2.0,4.0,50,0.00,,,0.00,VWS V14.01,2015-09-02 17:16:00,
2015-09-02 13:21:00,82.8,62.8,29.95,WSW,256,3.0,7.0,51,0.00,,,0.00,VWS V14.01,2015-09-02 17:21:00,
2015-09-02 13:26:00,83.0,62.5,29.94,WNW,302,0.0,7.0,50,0.00,,,0.00,VWS V14.01,2015-09-02 17:26:00,
2015-09-02 13:31:00,83.2,63.2,29.94,NW,304,2.0,6.0,51,0.00,,,0.00,VWS V14.01,2015-09-02 17:31:00,
2015-09-02 13:36:00,83.4,64.0,29.94,WNW,289,3.0,6.0,52,0.00,,,0.00,VWS V14.01,2015-09-02 17:36:00,
2015-09-02 13:41:00,83.9,64.4,29.94,ENE,61,3.0,6.0,52,0.00,,,0.00,VWS V14.01,2015-09-02 17:41:00,
2015-09-02 13:46:00,84.1,65.1,29.94,NW,317,0.0,6.0,53,0.00,,,0.00,VWS V14.01,2015-09-02 17:46:00,
2015-09-02 13:51:00,84.4,65.4,29.94,West,259,0.0,7.0,53,0.00,,,0.00,VWS V14.01,2015-09-02 17:51:00,
2015-09-02 13:56:00,83.9,64.4,29.94,WNW,293,5.0,7.0,52,0.00,,,0.00,VWS V14.01,2015-09-02 17:56:00,
2015-09-02 14:01:00,84.0,62.8,29.93,WNW,297,4.0,5.0,49,0.00,,,0.00,VWS V14.01,2015-09-02 18:01:00,
2015-09-02 14:06:00,84.3,64.8,29.93,NW,311,0.0,5.0,52,0.00,,,0.00,VWS V14.01,2015-09-02 18:06:00,
2015-09-02 14:11:00,84.9,65.3,29.93,WNW,296,4.0,5.0,52,0.00,,,0.00,VWS V14.01,2015-09-02 18:11:00,
2015-09-02 14:16:00,85.0,66.0,29.93,NW,314,3.0,6.0,53,0.00,,,0.00,VWS V14.01,2015-09-02 18:16:00,
2015-09-02 14:21:00,85.0,66.0,29.92,NNW,347,3.0,6.0,53,0.00,,,0.00,VWS V14.01,2015-09-02 18:21:00,
2015-09-02 14:26:00,84.8,66.3,29.92,North,355,1.0,6.0,54,0.00,,,0.00,VWS V14.01,2015-09-02 18:26:00,
2015-09-02 14:31:00,85.2,66.2,29.92,North,355,0.0,0.0,53,0.00,,,0.00,VWS V14.01,2015-09-02 18:31:00,
2015-09-02 14:36:00,85.2,66.2,29.92,WNW,294,4.0,6.0,53,0.00,,,0.00,VWS V14.01,2015-09-02 18:36:00,
2015-09-02 14:41:00,85.2,66.7,29.92,West,276,4.0,6.0,54,0.00,,,0.00,VWS V14.01,2015-09-02 18:41:00,
2015-09-02 14:46:00,85.2,66.2,29.92,WNW,283,2.0,7.0,53,0.00,,,0.00,VWS V14.01,2015-09-02 18:46:00,
2015-09-02 14:51:00,85.0,66.5,29.92,WNW,301,1.0,7.0,54,0.00,,,0.00,VWS V14.01,2015-09-02 18:51:00,
2015-09-02 14:56:00,85.4,66.3,29.92,West,274,4.0,7.0,53,0.00,,,0.00,VWS V14.01,2015-09-02 18:56:00,
2015-09-02 15:01:00,85.4,65.8,29.92,WSW,250,4.0,6.0,52,0.00,,,0.00,VWS V14.01,2015-09-02 19:01:00,
2015-09-02 15:06:00,85.2,66.2,29.91,WNW,289,5.0,7.0,53,0.00,,,0.00,VWS V14.01,2015-09-02 19:06:00,
2015-09-02 15:11:00,85.1,66.1,29.91,WNW,302,2.0,9.0,53,0.00,,,0.00,VWS V14.01,2015-09-02 19:11:00,
2015-09-02 15:16:00,85.1,66.1,29.91,WNW,302,4.0,9.0,53,0.00,,,0.00,VWS V14.01,2015-09-02 19:16:00,
2015-09-02 15:21:00,85.2,66.2,29.91,West,260,2.0,9.0,53,0.00,,,0.00,VWS V14.01,2015-09-02 19:21:00,
2015-09-02 15:26:00,85.3,66.2,29.90,West,267,6.0,9.0,53,0.00,,,0.00,VWS V14.01,2015-09-02 19:26:00,
2015-09-02 15:36:00,85.3,66.2,29.90,WNW,287,5.0,5.0,53,0.00,,,0.00,VWS V14.01,2015-09-02 19:36:00,
2015-09-02 15:41:00,85.5,65.9,29.90,West,270,4.0,6.0,52,0.00,,,0.00,VWS V14.01,2015-09-02 19:41:00,
2015-09-02 15:46:00,85.4,66.3,29.90,WNW,302,4.0,7.0,53,0.00,,,0.00,VWS V14.01,2015-09-02 19:46:00,
2015-09-02 15:51:00,85.1,65.5,29.90,WNW,287,3.0,7.0,52,0.00,,,0.00,VWS V14.01,2015-09-02 19:51:00,
2015-09-02 15:56:00,85.4,65.8,29.89,West,279,3.0,7.0,52,0.00,,,0.00,VWS V14.01,2015-09-02 19:56:00,
2015-09-02 16:01:00,85.5,66.4,29.90,West,263,5.0,5.0,53,0.00,,,0.00,VWS V14.01,2015-09-02 20:01:00,
2015-09-02 16:06:00,85.6,66.0,29.89,West,275,4.0,7.0,52,0.00,,,0.00,VWS V14.01,2015-09-02 20:06:00,
2015-09-02 16:11:00,85.4,66.3,29.89,NW,305,2.0,8.0,53,0.00,,,0.00,VWS V14.01,2015-09-02 20:11:00,
2015-09-02 16:16:00,85.4,65.8,29.89,WNW,292,3.0,8.0,52,0.00,,,0.00,VWS V14.01,2015-09-02 20:16:00,
2015-09-02 16:21:00,85.6,66.0,29.89,West,277,2.0,8.0,52,0.00,,,0.00,VWS V14.01,2015-09-02 20:21:00,
2015-09-02 16:26:00,85.6,66.0,29.89,WNW,286,6.0,8.0,52,0.00,,,0.00,VWS V14.01,2015-09-02 20:26:00,
2015-09-02 16:31:00,85.6,66.5,29.89,NW,326,3.0,6.0,53,0.00,,,0.00,VWS V14.01,2015-09-02 20:31:00,
2015-09-02 16:36:00,85.6,66.5,29.88,West,275,5.0,7.0,53,0.00,,,0.00,VWS V14.01,2015-09-02 20:36:00,
2015-09-02 16:41:00,85.6,66.0,29.88,West,276,6.0,9.0,52,0.00,,,0.00,VWS V14.01,2015-09-02 20:41:00,
2015-09-02 16:46:00,85.5,65.9,29.88,West,269,5.0,9.0,52,0.00,,,0.00,VWS V14.01,2015-09-02 20:46:00,
2015-09-02 16:51:00,85.3,66.2,29.88,NW,304,4.0,12.0,53,0.00,,,0.00,VWS V14.01,2015-09-02 20:51:00,
2015-09-02 16:56:00,85.2,65.1,29.88,West,259,5.0,12.0,51,0.00,,,0.00,VWS V14.01,2015-09-02 20:56:00,
2015-09-02 17:01:00,85.3,65.7,29.88,WNW,286,2.0,4.0,52,0.00,,,0.00,VWS V14.01,2015-09-02 21:01:00,
2015-09-02 17:06:00,85.2,65.6,29.87,WSW,245,4.0,6.0,52,0.00,,,0.00,VWS V14.01,2015-09-02 21:06:00,
2015-09-02 17:11:00,84.9,65.3,29.87,WNW,302,4.0,9.0,52,0.00,,,0.00,VWS V14.01,2015-09-02 21:11:00,
2015-09-02 17:16:00,84.8,64.7,29.88,WNW,294,2.0,9.0,51,0.00,,,0.00,VWS V14.01,2015-09-02 21:16:00,
2015-09-02 17:21:00,84.7,65.1,29.87,WNW,286,5.0,9.0,52,0.00,,,0.00,VWS V14.01,2015-09-02 21:21:00,
2015-09-02 17:26:00,84.5,64.4,29.87,WNW,300,5.0,9.0,51,0.00,,,0.00,VWS V14.01,2015-09-02 21:26:00,
2015-09-02 17:31:00,84.3,64.8,29.87,WNW,294,4.0,7.0,52,0.00,,,0.00,VWS V14.01,2015-09-02 21:31:00,
2015-09-02 17:36:00,84.2,64.1,29.87,WNW,292,5.0,8.0,51,0.00,,,0.00,VWS V14.01,2015-09-02 21:36:00,
2015-09-02 17:41:00,84.0,64.5,29.87,WNW,288,6.0,9.0,52,0.00,,,0.00,VWS V14.01,2015-09-02 21:41:00,
2015-09-02 17:46:00,83.9,64.4,29.87,WNW,299,1.0,9.0,52,0.00,,,0.00,VWS V14.01,2015-09-02 21:46:00,
2015-09-02 17:51:00,84.0,63.9,29.87,WSW,242,6.0,9.0,51,0.00,,,0.00,VWS V14.01,2015-09-02 21:51:00,
2015-09-02 17:56:00,83.6,63.0,29.86,WNW,286,4.0,9.0,50,0.00,,,0.00,VWS V14.01,2015-09-02 21:56:00,
2015-09-02 18:01:00,83.4,62.3,29.87,WNW,290,3.0,4.0,49,0.00,,,0.00,VWS V14.01,2015-09-02 22:01:00,
2015-09-02 18:02:00,83.4,62.8,29.87,NW,309,5.0,7.0,50,0.00,,,0.00,VWS V14.01,2015-09-02 22:02:00,
2015-09-02 18:07:00,83.1,62.0,29.87,West,268,4.0,9.0,49,0.00,,,0.00,VWS V14.01,2015-09-02 22:07:00,
2015-09-02 18:12:00,83.0,60.7,29.87,WNW,298,0.0,9.0,47,0.00,,,0.00,VWS V14.01,2015-09-02 22:12:00,
2015-09-02 18:17:00,82.7,60.4,29.87,WSW,248,1.0,9.0,47,0.00,,,0.00,VWS V14.01,2015-09-02 22:17:00,
2015-09-02 18:22:00,82.6,59.8,29.87,WSW,248,1.0,9.0,46,0.00,,,0.00,VWS V14.01,2015-09-02 22:22:00,
2015-09-02 18:27:00,82.3,58.9,29.87,WNW,303,0.0,9.0,45,0.00,,,0.00,VWS V14.01,2015-09-02 22:27:00,
2015-09-02 18:32:00,82.1,58.0,29.87,WNW,303,0.0,1.0,44,0.00,,,0.00,VWS V14.01,2015-09-02 22:32:00,
2015-09-02 18:37:00,82.0,58.0,29.87,West,275,1.0,3.0,44,0.00,,,0.00,VWS V14.01,2015-09-02 22:37:00,
2015-09-02 18:42:00,81.7,57.7,29.87,West,273,0.0,5.0,44,0.00,,,0.00,VWS V14.01,2015-09-02 22:42:00,
2015-09-02 18:47:00,81.3,56.0,29.87,West,273,0.0,5.0,42,0.00,,,0.00,VWS V14.01,2015-09-02 22:47:00,
2015-09-02 18:52:00,81.1,55.2,29.87,West,273,0.0,5.0,41,0.00,,,0.00,VWS V14.01,2015-09-02 22:52:00,
2015-09-02 18:57:00,81.0,55.8,29.87,West,273,2.0,5.0,42,0.00,,,0.00,VWS V14.01,2015-09-02 22:57:00,
2015-09-02 19:02:00,80.6,53.4,29.87,West,270,1.0,3.0,39,0.00,,,0.00,VWS V14.01,2015-09-02 23:02:00,
2015-09-02 19:07:00,80.1,52.2,29.87,West,276,4.0,4.0,38,0.00,,,0.00,VWS V14.01,2015-09-02 23:07:00,
2015-09-02 19:12:00,79.8,51.2,29.87,West,277,2.0,5.0,37,0.00,,,0.00,VWS V14.01,2015-09-02 23:12:00,
2015-09-02 19:17:00,79.5,50.2,29.87,West,275,2.0,5.0,36,0.00,,,0.00,VWS V14.01,2015-09-02 23:17:00,
2015-09-02 19:22:00,79.3,50.8,29.87,WNW,288,3.0,5.0,37,0.00,,,0.00,VWS V14.01,2015-09-02 23:22:00,
2015-09-02 19:27:00,79.1,49.9,29.87,WNW,286,3.0,5.0,36,0.00,,,0.00,VWS V14.01,2015-09-02 23:27:00,
2015-09-02 19:32:00,78.8,48.1,29.87,WNW,292,3.0,4.0,34,0.00,,,0.00,VWS V14.01,2015-09-02 23:32:00,
2015-09-02 19:37:00,78.5,47.0,29.87,WNW,296,3.0,5.0,33,0.00,,,0.00,VWS V14.01,2015-09-02 23:37:00,
2015-09-02 19:42:00,78.3,46.9,29.87,WNW,285,4.0,5.0,33,0.00,,,0.00,VWS V14.01,2015-09-02 23:42:00,
2015-09-02 19:47:00,78.2,47.6,29.87,WNW,285,3.0,6.0,34,0.00,,,0.00,VWS V14.01,2015-09-02 23:47:00,
2015-09-02 19:52:00,78.0,47.4,29.87,WNW,303,5.0,7.0,34,0.00,,,0.00,VWS V14.01,2015-09-02 23:52:00,
2015-09-02 19:57:00,78.2,49.8,29.87,NW,304,5.0,7.0,37,0.00,,,0.00,VWS V14.01,2015-09-02 23:57:00,
2015-09-02 20:02:00,78.1,49.7,29.87,WNW,290,4.0,6.0,37,0.00,,,0.00,VWS V14.01,2015-09-03 00:02:00,
2015-09-02 20:07:00,77.8,48.7,29.87,WNW,286,4.0,6.0,36,0.00,,,0.00,VWS V14.01,2015-09-03 00:07:00,
2015-09-02 20:12:00,77.7,48.7,29.87,WNW,289,5.0,6.0,36,0.00,,,0.00,VWS V14.01,2015-09-03 00:12:00,
2015-09-02 20:17:00,77.6,48.6,29.87,WNW,287,2.0,6.0,36,0.00,,,0.00,VWS V14.01,2015-09-03 00:17:00,
2015-09-02 20:22:00,77.5,48.5,29.87,WNW,296,2.0,6.0,36,0.00,,,0.00,VWS V14.01,2015-09-03 00:22:00,
2015-09-02 20:27:00,77.1,46.6,29.87,WNW,282,3.0,6.0,34,0.00,,,0.00,VWS V14.01,2015-09-03 00:27:00,
2015-09-02 20:32:00,77.0,46.5,29.87,WNW,292,4.0,4.0,34,0.00,,,0.00,VWS V14.01,2015-09-03 00:32:00,
2015-09-02 20:37:00,76.9,46.4,29.87,NW,314,4.0,6.0,34,0.00,,,0.00,VWS V14.01,2015-09-03 00:37:00,
2015-09-02 20:42:00,76.8,46.3,29.87,WNW,299,4.0,6.0,34,0.00,,,0.00,VWS V14.01,2015-09-03 00:42:00,
2015-09-02 20:47:00,76.6,44.6,29.87,WNW,296,5.0,6.0,32,0.00,,,0.00,VWS V14.01,2015-09-03 00:47:00,
2015-09-02 20:52:00,76.5,43.7,29.87,West,277,3.0,6.0,31,0.00,,,0.00,VWS V14.01,2015-09-03 00:52:00,
2015-09-02 20:57:00,76.4,42.7,29.87,WNW,286,3.0,8.0,30,0.00,,,0.00,VWS V14.01,2015-09-03 00:57:00,
2015-09-02 21:02:00,76.3,42.6,29.86,West,262,6.0,6.0,30,0.00,,,0.00,VWS V14.01,2015-09-03 01:02:00,
2015-09-02 21:07:00,76.2,41.7,29.86,WNW,296,2.0,6.0,29,0.00,,,0.00,VWS V14.01,2015-09-03 01:07:00,
2015-09-02 21:12:00,76.2,41.7,29.86,WNW,295,4.0,6.0,29,0.00,,,0.00,VWS V14.01,2015-09-03 01:12:00,
2015-09-02 21:17:00,75.8,37.5,29.86,WNW,293,3.0,6.0,25,0.00,,,0.00,VWS V14.01,2015-09-03 01:17:00,
2015-09-02 21:22:00,75.6,35.2,29.86,WNW,299,3.0,6.0,23,0.00,,,0.00,VWS V14.01,2015-09-03 01:22:00,
2015-09-02 21:27:00,75.5,34.0,29.86,WNW,301,3.0,6.0,22,0.00,,,0.00,VWS V14.01,2015-09-03 01:27:00,
2015-09-02 21:32:00,75.4,31.6,29.86,WNW,297,5.0,6.0,20,0.00,,,0.00,VWS V14.01,2015-09-03 01:32:00,